Location: Lane
(33.5226°N, 79.8788°W)
Time: 03:05:46
(UTC+00:00)

Altair - Pass Details

Date: 05 October 2022
Orbit: 1501 x 1682 km, 47.2° (Epoch: 01 December)

Event Time Altitude Azimuth Distance (km) Brightness Sun altitude
Rises 17:56:14 0° 297° (WNW) 4,931 10.1 49.9°
Reaches altitude 10° 17:59:59 10° 287° (WNW) 3,944 9.8 49.6°
Maximum altitude 18:08:04 28° 234° (SW) 2,760 10.1 49.0°
Drops below altitude 10° 18:16:05 10° 180° (S) 3,893 10.4 48.3°
Sets 18:19:48 0° 169° (SSE) 4,855 10.6 47.9°
